Location: Cedar Brake
(32.2526°N, 97.8459°W)
Time: 20:48:43
(UTC+00:00)

BREEZE-M DEB (TANK) - Pass Details

Date: 22 April 2026
Orbit: 940 x 35678 km, 47.5° (Epoch: 20 May)

Event Time Altitude Azimuth Distance (km) Brightness Sun altitude
Rises 10:35:07 0° 308° (NW) 3,598 6.2 -16.5°
Reaches altitude 10° 10:36:58 10° 309° (NW) 2,725 5.6 -16.1°
Maximum altitude 10:42:11 88° 37° (NE) 1,413 4.3 -15.1°
Drops below altitude 10° 10:58:36 10° 130° (SE) 7,938 8.5 -12.0°
Sets 11:11:08 0° 132° (SE) 12,456 9.6 -9.5°
